Date String (YYYY-MM-DD hh:mm:ss) UTC,Instrument flags,absolute air pressure of the measurement (hPa),sample flow rate (lpm),inlet stack bypass flow (lpm),air temperature of the measurement (°C),ambient temperature measured by the external sensor (°C),aerosol sample conditioner tube jacket temperature (°C),OPC LED temperature (°C),internal box temperature (°C),relative humidity of the measurement (%),span deviation,mass concentration of particles derived from Lorenz-Mie calculation of OPC scattering (μg/m³),mass concentration of particles derived from Lorenz-Mie calculation of OPC scattering (μg/m³),mass concentration of particles derived from Lorenz-Mie calculation of OPC scattering (μg/m³)
DateTimeUTC,F1_M11,P_M11,Q1_M11,Q2_M11,T1_M11,T2_M11,T3_M11,T4_M11,T5_M11,U1_M11,ZSPAN_M11,X0_M11,X2_M11,X1_M11
2024-06-06 14:00:00,SystemResetWarning,0833.8,5.00,000.00,030.5,027.4,000.0,039.2,031.0,026.6,0000.0,0017.52,0003.78,0002.13
2024-06-06 14:01:00,SystemResetWarning,0833.8,5.01,000.00,030.0,026.5,000.0,039.2,030.6,027.4,0000.0,0016.90,0003.77,0002.12
2024-06-06 14:02:00,SystemResetWarning,0833.8,5.01,000.00,029.9,026.8,000.0,039.0,030.7,027.5,0000.0,0017.58,0003.76,0002.11
2024-06-06 14:03:00,SystemResetWarning,0833.9,5.00,000.00,029.8,027.3,000.0,038.9,030.9,028.0,0000.0,0018.11,0003.77,0002.11
2024-06-06 14:04:00,SystemResetWarning,0834.0,5.00,000.00,029.8,027.7,000.0,038.7,031.1,027.7,0000.0,0017.74,0003.74,0002.10
2024-06-06 14:05:00,SystemResetWarning,0834.0,5.00,000.00,029.8,028.1,000.0,038.7,031.3,027.7,0000.0,0017.53,0003.79,0002.10
2024-06-06 14:06:00,SystemResetWarning,0834.0,5.00,000.00,029.9,028.4,000.0,038.6,031.4,027.9,0000.0,0017.56,0003.76,0002.10
2024-06-06 14:07:00,SystemResetWarning,0834.0,5.00,000.00,029.9,028.6,000.0,038.6,031.5,027.6,0000.0,0017.72,0003.75,0002.08
2024-06-06 14:08:00,SystemResetWarning,0834.0,5.00,000.00,029.9,028.8,000.0,038.5,031.6,027.6,0000.0,0017.13,0003.78,0002.08
2024-06-06 14:09:00,SystemResetWarning,0834.0,5.00,000.00,030.0,029.0,000.0,038.5,031.7,027.3,0000.0,0017.94,0003.79,0002.08
2024-06-06 14:10:00,SystemResetWarning,0834.0,5.00,000.00,030.0,029.1,000.0,038.5,031.7,027.4,0000.0,0017.31,0003.76,0002.09
2024-06-06 14:11:00,SystemResetWarning,0834.0,5.00,000.00,030.1,029.3,000.0,038.5,031.8,027.3,0000.0,0016.63,0003.74,0002.09
2024-06-06 14:12:00,SystemResetWarning,0834.0,4.99,000.00,030.1,029.4,000.0,038.5,031.8,027.1,0000.0,0017.02,0003.78,0002.11
2024-06-06 14:13:00,SystemResetWarning,0834.0,4.99,000.00,030.1,029.5,000.0,038.5,031.9,027.2,0000.0,0016.27,0003.84,0002.14
2024-06-06 14:14:00,SystemResetWarning,0834.1,5.01,000.00,030.2,029.5,000.0,038.5,031.9,027.4,0000.0,0015.58,0003.80,0002.13
2024-06-06 14:15:00,SystemResetWarning,0834.1,5.01,000.00,030.2,029.6,000.0,038.5,032.0,026.9,0000.0,0015.30,0003.81,0002.13
2024-06-06 14:16:00,SystemResetWarning,0834.1,4.99,000.00,030.3,029.7,000.0,038.6,032.0,027.1,0000.0,0015.63,0003.81,0002.14
2024-06-06 14:17:00,SystemResetWarning,0834.1,4.99,000.00,030.3,029.7,000.0,038.6,032.1,027.0,0000.0,0015.23,0003.81,0002.15
2024-06-06 14:18:00,SystemResetWarning,0834.1,5.00,000.00,030.3,029.8,000.0,038.6,032.1,026.7,0000.0,0014.62,0003.84,0002.18
2024-06-06 14:19:00,SystemResetWarning,0834.1,5.01,000.00,030.4,029.8,000.0,038.6,032.1,026.6,0000.0,0014.34,0003.80,0002.18
2024-06-06 14:20:00,SystemResetWarning,0834.1,5.00,000.00,030.4,029.9,000.0,038.7,032.1,026.5,0000.0,0014.20,0003.81,0002.19
2024-06-06 14:21:00,SystemResetWarning,0834.1,5.00,000.00,030.4,029.9,000.0,038.7,032.2,026.4,0000.0,0015.00,0003.85,0002.21
2024-06-06 14:22:00,SystemResetWarning,0834.1,4.99,000.00,030.5,030.0,000.0,038.7,032.2,026.4,0000.0,0016.56,0003.92,0002.24
2024-06-06 14:23:00,SystemResetWarning,0834.1,5.00,000.00,030.5,030.0,000.0,038.7,032.3,026.5,0000.0,0016.60,0003.91,0002.24
2024-06-06 14:24:00,SystemResetWarning,0834.1,4.99,000.00,030.6,030.0,000.0,038.8,032.3,026.6,0000.0,0016.73,0003.86,0002.23
2024-06-06 14:25:00,SystemResetWarning,0834.1,5.01,000.00,030.6,030.1,000.0,038.8,032.3,026.5,0000.0,0017.04,0003.89,0002.22
2024-06-06 14:26:00,SystemResetWarning,0834.1,5.00,000.00,030.6,029.7,000.0,038.8,032.1,026.9,0000.0,0017.22,0003.91,0002.25
2024-06-06 14:27:00,SystemResetWarning,0834.1,4.99,000.00,030.3,027.6,000.0,038.9,031.1,027.0,0000.0,0018.08,0003.91,0002.24
2024-06-06 14:28:00,SystemResetWarning,0834.0,5.02,000.00,029.9,026.3,000.0,038.9,030.4,027.6,0000.0,0018.32,0003.94,0002.27
2024-06-06 14:29:00,SystemResetWarning,0834.0,5.01,000.00,029.7,026.6,000.0,038.8,030.5,027.8,0000.0,0018.94,0003.96,0002.29
2024-06-06 14:30:00,SystemResetWarning,0834.1,5.00,000.00,029.6,027.1,000.0,038.6,030.8,028.1,0000.0,0019.08,0003.95,0002.30
2024-06-06 14:31:00,SystemResetWarning,0834.1,4.99,000.00,029.6,027.5,000.0,038.5,030.9,028.3,0000.0,0018.20,0003.89,0002.29
2024-06-06 14:32:00,SystemResetWarning,0834.1,4.99,000.00,029.7,027.9,000.0,038.4,031.1,028.0,0000.0,0017.01,0003.84,0002.28
2024-06-06 14:33:00,SystemResetWarning,0834.1,5.00,000.00,029.7,028.2,000.0,038.4,031.3,027.9,0000.0,0016.23,0003.86,0002.27
2024-06-06 14:34:00,SystemResetWarning,0834.1,5.00,000.00,029.7,028.4,000.0,038.3,031.3,028.1,0000.0,0016.74,0003.92,0002.27
2024-06-06 14:35:00,SystemResetWarning,0834.1,5.01,000.00,029.8,028.7,000.0,038.3,031.4,027.9,0000.0,0017.18,0003.99,0002.28
2024-06-06 14:36:00,SystemResetWarning,0834.1,5.01,000.00,029.8,028.8,000.0,038.3,031.5,028.1,0000.0,0017.23,0004.00,0002.30
2024-06-06 14:37:00,SystemResetWarning,0834.1,4.99,000.00,029.9,029.0,000.0,038.3,031.6,028.0,0000.0,0016.86,0004.01,0002.29
2024-06-06 14:38:00,SystemResetWarning,0834.1,4.99,000.00,029.9,029.1,000.0,038.3,031.6,027.9,0000.0,0017.62,0004.06,0002.29
2024-06-06 14:39:00,SystemResetWarning,0834.1,5.01,000.00,029.9,029.2,000.0,038.3,031.7,028.0,0000.0,0018.29,0004.06,0002.28
2024-06-06 14:40:00,SystemResetWarning,0834.1,5.01,000.00,030.0,029.3,000.0,038.3,031.7,027.6,0000.0,0018.75,0004.07,0002.25
2024-06-06 14:41:00,SystemResetWarning,0834.1,5.00,000.00,030.0,029.4,000.0,038.3,031.8,027.4,0000.0,0019.02,0004.11,0002.26
2024-06-06 14:42:00,SystemResetWarning,0834.1,5.00,000.00,030.1,029.5,000.0,038.4,031.9,027.5,0000.0,0019.60,0004.15,0002.26
2024-06-06 14:43:00,SystemResetWarning,0834.1,5.00,000.00,030.1,029.6,000.0,038.4,031.9,027.2,0000.0,0020.80,0004.16,0002.25
2024-06-06 14:44:00,SystemResetWarning,0834.1,5.00,000.00,030.2,029.6,000.0,038.4,031.9,027.4,0000.0,0020.37,0004.11,0002.25
2024-06-06 14:45:00,SystemResetWarning,0834.1,5.00,000.00,030.2,029.7,000.0,038.4,032.0,027.3,0000.0,0020.85,0004.06,0002.24
2024-06-06 14:46:00,SystemResetWarning,0834.1,5.00,000.00,030.2,029.7,000.0,038.5,032.0,026.9,0000.0,0022.73,0004.04,0002.25
2024-06-06 14:47:00,SystemResetWarning,0834.1,4.99,000.00,030.3,029.8,000.0,038.5,032.1,027.3,0000.0,0022.34,0004.06,0002.26
2024-06-06 14:48:00,SystemResetWarning,0834.1,4.99,000.00,030.3,029.8,000.0,038.5,032.1,027.0,0000.0,0021.88,0004.06,0002.28
2024-06-06 14:49:00,SystemResetWarning,0834.2,5.00,000.00,030.4,029.9,000.0,038.6,032.1,026.9,0000.0,0020.28,0004.03,0002.29
2024-06-06 14:50:00,SystemResetWarning,0834.1,4.99,000.00,030.3,028.6,000.0,038.6,031.5,027.1,0000.0,0020.12,0004.04,0002.27
2024-06-06 14:51:00,SystemResetWarning,0834.0,5.01,000.00,029.9,026.6,000.0,038.7,030.5,028.0,0000.0,0019.88,0004.03,0002.27
2024-06-06 14:52:00,SystemResetWarning,0834.0,5.01,000.00,029.6,026.4,000.0,038.6,030.3,028.3,0000.0,0019.84,0003.99,0002.27
2024-06-06 14:53:00,SystemResetWarning,0834.0,5.00,000.00,029.5,026.8,000.0,038.5,030.5,028.3,0000.0,0019.82,0004.01,0002.28
2024-06-06 14:54:00,SystemResetWarning,0834.0,4.99,000.00,029.5,027.2,000.0,038.3,030.7,028.8,0000.0,0018.58,0004.06,0002.28
2024-06-06 14:55:00,SystemResetWarning,0834.1,5.00,000.00,029.5,027.6,000.0,038.2,030.9,028.7,0000.0,0018.31,0004.06,0002.26
2024-06-06 14:56:00,SystemResetWarning,0834.0,5.01,000.00,029.5,028.0,000.0,038.2,031.1,028.4,0000.0,0017.68,0004.05,0002.25
2024-06-06 14:57:00,SystemResetWarning,0834.0,5.00,000.00,029.6,028.3,000.0,038.2,031.2,028.1,0000.0,0015.78,0004.06,0002.24
2024-06-06 14:58:00,SystemResetWarning,0834.0,5.00,000.00,029.6,028.5,000.0,038.1,031.3,027.9,0000.0,0015.58,0003.99,0002.22
2024-06-06 14:59:00,SystemResetWarning,0834.0,4.99,000.00,029.6,028.7,000.0,038.1,031.3,027.9,0000.0,0015.10,0003.95,0002.22
